Time,TemperatureF,DewpointF,PressureIn,WindDirection,WindDirectionDegrees,WindSpeedMPH,WindSpeedGustMPH,Humidity,HourlyPrecipIn,Conditions,Clouds,dailyrainin,SoftwareType,DateUTC
2013-03-05 00:00:00,42.4,24.6,30.12,SW,225,0.0,7.0,49,0.00,,OVC,0.00,VWS V14.01,2013-03-05 05:00:00,
2013-03-05 01:00:00,42.2,25.9,30.12,WSW,248,0.0,4.0,52,0.00,,OVC,0.00,VWS V14.01,2013-03-05 06:00:00,
2013-03-05 02:00:00,42.2,26.3,30.12,SSW,202,0.0,5.0,53,0.00,,OVC,0.00,VWS V14.01,2013-03-05 07:00:00,
2013-03-05 03:00:00,42.0,27.0,30.09,SSW,202,0.0,4.0,55,0.00,,OVC,0.00,VWS V14.01,2013-03-05 08:00:00,
2013-03-05 04:00:00,41.9,26.0,30.07,SSW,202,0.0,1.0,53,0.00,,OVC,0.00,VWS V14.01,2013-03-05 09:00:00,
2013-03-05 05:00:00,41.5,26.5,30.06,SSW,202,0.0,3.0,55,0.00,,OVC,0.00,VWS V14.01,2013-03-05 10:00:00,
2013-03-05 06:00:00,41.2,26.7,30.05,SW,225,0.0,5.0,56,0.00,,OVC,0.00,VWS V14.01,2013-03-05 11:00:00,
2013-03-05 07:00:00,40.1,27.4,30.04,SW,225,0.0,5.0,60,0.00,,OVC,0.00,VWS V14.01,2013-03-05 12:00:00,
2013-03-05 08:00:00,38.2,33.2,30.02,SSW,202,0.0,6.0,82,0.00,,OVC,0.00,VWS V14.01,2013-03-05 13:00:00,
2013-03-05 09:00:00,38.3,35.1,30.01,ENE,68,0.0,2.0,88,0.02,,OVC,0.02,VWS V14.01,2013-03-05 14:00:00,
2013-03-05 10:00:00,37.6,36.0,30.00,SSE,158,0.0,1.0,94,0.04,,OVC,0.04,VWS V14.01,2013-03-05 15:00:00,
2013-03-05 11:00:00,38.8,37.2,29.98,SSE,158,0.0,1.0,94,0.02,,OVC,0.04,VWS V14.01,2013-03-05 16:00:00,
2013-03-05 12:00:00,40.4,39.3,29.94,North,0,0.0,3.0,96,0.00,,OVC,0.04,VWS V14.01,2013-03-05 17:00:00,
2013-03-05 13:00:00,41.4,40.3,29.91,SW,225,0.0,2.0,96,0.00,,OVC,0.04,VWS V14.01,2013-03-05 18:00:00,
2013-03-05 14:00:00,41.4,40.3,29.87,SW,225,0.0,3.0,96,0.00,,OVC,0.04,VWS V14.01,2013-03-05 19:00:00,
2013-03-05 15:00:00,44.7,43.9,29.80,SW,224,0.0,3.0,97,0.01,,OVC,0.04,VWS V14.01,2013-03-05 20:00:00,
2013-03-05 15:28:00,44.4,43.6,29.81,SW,236,0.0,2.0,97,0.01,,OVC,0.04,VWS V14.01,2013-03-05 20:28:00,
2013-03-05 15:33:00,44.5,43.7,29.81,SW,224,2.0,2.0,97,0.01,,OVC,0.04,VWS V14.01,2013-03-05 20:33:00,
2013-03-05 15:38:00,44.5,43.7,29.80,SW,224,0.0,3.0,97,0.01,,OVC,0.04,VWS V14.01,2013-03-05 20:38:00,
2013-03-05 15:43:00,44.5,43.7,29.80,SW,224,0.0,3.0,97,0.01,,OVC,0.04,VWS V14.01,2013-03-05 20:43:00,
2013-03-05 15:48:00,44.5,43.7,29.80,SW,224,0.0,3.0,97,0.01,,OVC,0.04,VWS V14.01,2013-03-05 20:48:00,
2013-03-05 15:53:00,44.5,43.7,29.80,SW,224,0.0,3.0,97,0.01,,OVC,0.04,VWS V14.01,2013-03-05 20:53:00,
2013-03-05 15:58:00,44.6,43.8,29.80,SW,224,0.0,3.0,97,0.01,,OVC,0.04,VWS V14.01,2013-03-05 20:58:00,
2013-03-05 16:00:00,45.4,44.3,29.72,SW,224,0.0,2.0,96,0.02,,OVC,0.06,VWS V14.01,2013-03-05 21:00:00,
2013-03-05 16:03:00,44.7,43.9,29.79,SW,224,0.0,0.0,97,0.00,,OVC,0.04,VWS V14.01,2013-03-05 21:03:00,
2013-03-05 16:08:00,44.7,43.9,29.79,SW,224,0.0,0.0,97,0.00,,OVC,0.04,VWS V14.01,2013-03-05 21:08:00,
2013-03-05 16:13:00,44.8,44.0,29.79,SW,224,0.0,1.0,97,0.00,,OVC,0.04,VWS V14.01,2013-03-05 21:13:00,
2013-03-05 16:18:00,44.9,44.1,29.78,SW,224,0.0,1.0,97,0.00,,OVC,0.04,VWS V14.01,2013-03-05 21:18:00,
2013-03-05 16:23:00,45.0,44.2,29.78,SW,224,0.0,1.0,97,0.00,,OVC,0.04,VWS V14.01,2013-03-05 21:23:00,
2013-03-05 16:28:00,44.9,44.1,29.77,SW,224,0.0,1.0,97,0.00,,OVC,0.04,VWS V14.01,2013-03-05 21:28:00,
2013-03-05 16:33:00,45.0,44.2,29.76,SW,224,0.0,2.0,97,0.00,,OVC,0.04,VWS V14.01,2013-03-05 21:33:00,
2013-03-05 16:38:00,45.1,44.3,29.75,SW,224,1.0,2.0,97,0.00,,OVC,0.04,VWS V14.01,2013-03-05 21:38:00,
2013-03-05 16:43:00,45.2,44.4,29.75,SW,224,0.0,2.0,97,0.00,,OVC,0.04,VWS V14.01,2013-03-05 21:43:00,
2013-03-05 16:49:00,45.4,44.6,29.74,SW,224,0.0,2.0,97,0.01,,OVC,0.05,VWS V14.01,2013-03-05 21:49:00,
2013-03-05 16:54:00,45.4,44.6,29.72,SW,224,1.0,2.0,97,0.02,,OVC,0.06,VWS V14.01,2013-03-05 21:54:00,
2013-03-05 16:59:00,45.4,44.3,29.72,SW,224,0.0,2.0,96,0.02,,OVC,0.06,VWS V14.01,2013-03-05 21:59:00,
2013-03-05 17:00:00,45.5,44.7,29.74,SE,124,0.0,4.0,97,0.28,,OVC,0.32,VWS V14.01,2013-03-05 22:00:00,
2013-03-05 17:04:00,45.3,44.2,29.72,SW,224,0.0,2.0,96,0.03,,OVC,0.07,VWS V14.01,2013-03-05 22:04:00,
2013-03-05 17:09:00,45.2,44.1,29.71,SW,224,0.0,2.0,96,0.04,,OVC,0.08,VWS V14.01,2013-03-05 22:09:00,
2013-03-05 17:14:00,45.1,44.0,29.70,SW,224,0.0,2.0,96,0.04,,OVC,0.08,VWS V14.01,2013-03-05 22:14:00,
2013-03-05 17:19:00,45.2,44.1,29.70,SW,224,0.0,2.0,96,0.05,,OVC,0.09,VWS V14.01,2013-03-05 22:19:00,
2013-03-05 17:24:00,45.2,44.1,29.70,SW,224,0.0,2.0,96,0.07,,OVC,0.11,VWS V14.01,2013-03-05 22:24:00,
2013-03-05 17:29:00,45.3,44.2,29.70,SW,224,0.0,2.0,96,0.09,,OVC,0.13,VWS V14.01,2013-03-05 22:29:00,
2013-03-05 17:34:00,45.2,44.1,29.70,SW,224,0.0,2.0,96,0.13,,OVC,0.17,VWS V14.01,2013-03-05 22:34:00,
2013-03-05 17:39:00,45.2,44.1,29.69,SW,224,0.0,2.0,96,0.15,,OVC,0.19,VWS V14.01,2013-03-05 22:39:00,
2013-03-05 17:44:00,45.4,44.6,29.71,SW,223,3.0,4.0,97,0.18,,OVC,0.22,VWS V14.01,2013-03-05 22:44:00,
2013-03-05 17:49:00,45.6,44.8,29.71,ENE,73,1.0,4.0,97,0.22,,OVC,0.26,VWS V14.01,2013-03-05 22:49:00,
2013-03-05 17:54:00,45.6,44.8,29.72,NNE,19,0.0,4.0,97,0.25,,OVC,0.29,VWS V14.01,2013-03-05 22:54:00,
2013-03-05 17:59:00,45.6,44.8,29.74,SE,124,0.0,4.0,97,0.28,,OVC,0.32,VWS V14.01,2013-03-05 22:59:00,
2013-03-05 18:00:00,45.7,44.9,29.70,SSW,212,0.0,3.0,97,0.44,,OVC,0.50,VWS V14.01,2013-03-05 23:00:00,
2013-03-05 18:04:00,45.3,44.5,29.74,SSW,212,0.0,3.0,97,0.28,,OVC,0.34,VWS V14.01,2013-03-05 23:04:00,
2013-03-05 18:09:00,45.2,44.4,29.73,SSW,212,0.0,3.0,97,0.31,,OVC,0.37,VWS V14.01,2013-03-05 23:09:00,
2013-03-05 18:14:00,45.1,44.3,29.73,SSW,212,0.0,3.0,97,0.34,,OVC,0.40,VWS V14.01,2013-03-05 23:14:00,
2013-03-05 18:19:00,45.2,44.4,29.73,SSW,212,0.0,3.0,97,0.37,,OVC,0.43,VWS V14.01,2013-03-05 23:19:00,
2013-03-05 18:24:00,45.5,44.7,29.72,SSW,212,0.0,3.0,97,0.40,,OVC,0.46,VWS V14.01,2013-03-05 23:24:00,
2013-03-05 18:29:00,45.6,44.8,29.72,SSW,212,0.0,3.0,97,0.43,,OVC,0.49,VWS V14.01,2013-03-05 23:29:00,
2013-03-05 18:34:00,45.7,44.9,29.71,SSW,212,0.0,3.0,97,0.44,,OVC,0.50,VWS V14.01,2013-03-05 23:34:00,
2013-03-05 18:39:00,45.7,44.9,29.70,SSW,212,0.0,3.0,97,0.44,,OVC,0.50,VWS V14.01,2013-03-05 23:39:00,
2013-03-05 18:44:00,45.7,44.9,29.70,SSW,212,0.0,3.0,97,0.44,,OVC,0.50,VWS V14.01,2013-03-05 23:44:00,
2013-03-05 18:49:00,45.7,44.9,29.70,SSW,212,0.0,3.0,97,0.44,,OVC,0.50,VWS V14.01,2013-03-05 23:49:00,
2013-03-05 18:55:00,45.7,44.9,29.70,SSW,212,0.0,3.0,97,0.44,,OVC,0.50,VWS V14.01,2013-03-05 23:55:00,
2013-03-05 19:00:00,45.7,44.9,29.70,SSW,212,0.0,3.0,97,0.44,,OVC,0.50,VWS V14.01,2013-03-06 00:00:00,
2013-03-05 19:05:00,45.7,44.9,29.69,SSW,212,0.0,0.0,97,0.18,,OVC,0.50,VWS V14.01,2013-03-06 00:05:00,
2013-03-05 19:10:00,45.7,44.9,29.69,SSW,212,0.0,0.0,97,0.18,,OVC,0.50,VWS V14.01,2013-03-06 00:10:00,
2013-03-05 19:15:00,45.9,45.1,29.69,NW,312,0.0,3.0,97,0.18,,OVC,0.50,VWS V14.01,2013-03-06 00:15:00,
2013-03-05 19:20:00,46.0,45.2,29.70,NW,308,0.0,3.0,97,0.18,,OVC,0.50,VWS V14.01,2013-03-06 00:20:00,
2013-03-05 19:25:00,46.0,45.2,29.69,NW,308,0.0,3.0,97,0.18,,OVC,0.50,VWS V14.01,2013-03-06 00:25:00,
2013-03-05 19:30:00,45.9,45.1,29.70,SW,217,0.0,3.0,97,0.18,,OVC,0.50,VWS V14.01,2013-03-06 00:30:00,
2013-03-05 19:35:00,45.9,45.1,29.70,SW,217,0.0,3.0,97,0.18,,OVC,0.50,VWS V14.01,2013-03-06 00:35:00,
2013-03-05 19:40:00,45.7,44.9,29.70,SW,217,0.0,3.0,97,0.18,,OVC,0.50,VWS V14.01,2013-03-06 00:40:00,
2013-03-05 19:45:00,45.8,45.0,29.69,SW,221,0.0,4.0,97,0.18,,OVC,0.50,VWS V14.01,2013-03-06 00:45:00,
2013-03-05 19:50:00,46.1,45.3,29.69,SSW,207,0.0,4.0,97,0.18,,OVC,0.50,VWS V14.01,2013-03-06 00:50:00,
2013-03-05 19:55:00,46.0,45.2,29.69,SE,126,2.0,4.0,97,0.18,,OVC,0.50,VWS V14.01,2013-03-06 00:55:00,
2013-03-05 20:00:00,46.0,45.2,29.69,SE,131,0.0,0.0,97,0.00,,OVC,0.50,VWS V14.01,2013-03-06 01:00:00,
2013-03-05 20:05:00,45.9,45.1,29.69,SSW,200,0.0,3.0,97,0.00,,OVC,0.50,VWS V14.01,2013-03-06 01:05:00,
2013-03-05 20:10:00,45.8,45.0,29.69,SSW,200,0.0,3.0,97,0.00,,OVC,0.50,VWS V14.01,2013-03-06 01:10:00,
2013-03-05 20:15:00,45.6,44.8,29.69,SSW,200,0.0,3.0,97,0.00,,OVC,0.50,VWS V14.01,2013-03-06 01:15:00,
2013-03-05 20:20:00,45.5,44.7,29.69,SSW,200,0.0,3.0,97,0.00,,OVC,0.50,VWS V14.01,2013-03-06 01:20:00,
2013-03-05 20:25:00,45.3,44.5,29.69,SSW,200,0.0,3.0,97,0.00,,OVC,0.50,VWS V14.01,2013-03-06 01:25:00,
2013-03-05 20:30:00,45.2,44.4,29.68,NNW,334,0.0,4.0,97,0.00,,OVC,0.50,VWS V14.01,2013-03-06 01:30:00,
2013-03-05 20:35:00,45.2,44.4,29.68,WNW,294,1.0,4.0,97,0.00,,OVC,0.50,VWS V14.01,2013-03-06 01:35:00,
2013-03-05 20:40:00,45.2,44.4,29.68,SSW,198,1.0,4.0,97,0.00,,OVC,0.50,VWS V14.01,2013-03-06 01:40:00,
2013-03-05 20:45:00,45.2,44.4,29.68,SSW,198,1.0,4.0,97,0.00,,OVC,0.50,VWS V14.01,2013-03-06 01:45:00,
2013-03-05 20:50:00,45.1,44.6,29.68,East,85,0.0,4.0,98,0.00,,OVC,0.50,VWS V14.01,2013-03-06 01:50:00,
2013-03-05 20:55:00,45.0,44.5,29.68,East,85,0.0,4.0,98,0.00,,OVC,0.50,VWS V14.01,2013-03-06 01:55:00,
2013-03-05 21:00:00,45.0,44.5,29.68,West,268,0.0,1.0,98,0.00,,OVC,0.50,VWS V14.01,2013-03-06 02:00:00,
2013-03-05 21:05:00,44.8,44.0,29.67,West,271,1.0,2.0,97,0.00,,OVC,0.50,VWS V14.01,2013-03-06 02:05:00,
2013-03-05 21:11:00,44.6,43.8,29.67,West,271,0.0,2.0,97,0.00,,OVC,0.50,VWS V14.01,2013-03-06 02:11:00,
2013-03-05 21:16:00,44.2,43.4,29.67,North,354,1.0,3.0,97,0.00,,OVC,0.50,VWS V14.01,2013-03-06 02:16:00,
2013-03-05 21:21:00,44.1,43.3,29.67,North,354,0.0,3.0,97,0.00,,OVC,0.50,VWS V14.01,2013-03-06 02:21:00,
2013-03-05 21:26:00,44.1,43.3,29.67,NNE,14,0.0,3.0,97,0.00,,OVC,0.50,VWS V14.01,2013-03-06 02:26:00,
2013-03-05 21:31:00,44.0,43.2,29.67,NNE,13,0.0,3.0,97,0.00,,OVC,0.50,VWS V14.01,2013-03-06 02:31:00,
2013-03-05 21:36:00,44.0,43.2,29.67,NNE,30,2.0,3.0,97,0.00,,OVC,0.50,VWS V14.01,2013-03-06 02:36:00,
2013-03-05 21:41:00,44.0,43.5,29.68,NNE,12,0.0,3.0,98,0.00,,OVC,0.50,VWS V14.01,2013-03-06 02:41:00,
2013-03-05 21:46:00,43.8,43.3,29.68,ESE,121,2.0,3.0,98,0.00,,OVC,0.50,VWS V14.01,2013-03-06 02:46:00,
2013-03-05 21:51:00,42.5,41.7,29.68,NE,36,1.0,6.0,97,0.00,,OVC,0.50,VWS V14.01,2013-03-06 02:51:00,
2013-03-05 21:56:00,41.3,40.5,29.67,NW,318,2.0,12.0,97,0.00,,OVC,0.50,VWS V14.01,2013-03-06 02:56:00,
2013-03-05 22:00:00,38.8,31.9,29.68,NE,45,3.0,16.0,76,0.00,,OVC,0.00,VWS V14.01,2013-03-06 03:00:00,
2013-03-05 22:01:00,40.7,39.7,29.68,North,9,6.0,11.0,96,0.00,,OVC,0.50,VWS V14.01,2013-03-06 03:01:00,
2013-03-05 22:06:00,40.9,38.5,29.67,ENE,60,4.0,13.0,91,0.00,,OVC,0.50,VWS V14.01,2013-03-06 03:06:00,
2013-03-05 22:11:00,40.3,37.3,29.68,NNE,22,2.0,13.0,89,0.00,,OVC,0.50,VWS V14.01,2013-03-06 03:11:00,
2013-03-05 22:16:00,40.3,36.5,29.68,NW,320,6.0,13.0,86,0.00,,OVC,0.50,VWS V14.01,2013-03-06 03:16:00,
2013-03-05 22:21:00,40.3,35.2,29.68,South,185,6.0,13.0,82,0.00,,OVC,0.50,VWS V14.01,2013-03-06 03:21:00,
2013-03-05 22:26:00,40.4,33.8,29.67,NNE,33,3.0,16.0,77,0.00,,OVC,0.50,VWS V14.01,2013-03-06 03:26:00,
2013-03-05 22:31:00,40.1,33.8,29.68,SE,144,4.0,16.0,78,0.00,,OVC,0.50,VWS V14.01,2013-03-06 03:31:00,
2013-03-05 23:00:00,33.8,30.6,29.68,South,180,0.0,5.0,88,0.00,,OVC,0.00,VWS V14.01,2013-03-06 04:00:00,